Hourly Data Report for May 08, 2012

All times are specified in Local Standard Time (LST). Add 1 hour to adjust for Daylight Saving Time where and when it is observed.

GANDER INTL A
NEWFOUNDLAND

48°56'13.000" N
54°34'05.000" W
151.20 m
8401703
71803
YQX

Download Data

Hourly Data (May 2012)
Hourly Data Report for May 8, 2012
Temp Definition
°C
Dew Point Temp Definition
°C
Rel Hum Definition
%
Wind Dir Definition
10's deg

Wind Spd Definition
km/h
Visibility Definition
km
Stn Press Definition
kPa
Hmdx Definition


Wind Chill Definition


Weather Definition


TIME
00:30 Legend Double Dagger 4.7 3.7 93 14 5 10.0 100.17     LegendNANA
01:30 Legend Double Dagger 4.4 3.7 95   0 10.0 100.18     LegendNANA
02:30 Legend Double Dagger 4.2 3.3 94   0 10.0 100.19     Mostly Cloudy
03:30 Legend Double Dagger 4.0 3.4 96   0 10.0 100.18     LegendNANA
04:30 Legend Double Dagger 3.0 2.4 96 36 7 10.0 100.20     LegendNANA
05:30 Legend Double Dagger 3.4 3.0 97 6 7 10.0 100.22     Mostly Cloudy
06:30 Legend Double Dagger 4.7 4.0 95   0 10.0 100.27     LegendNANA
07:30 Legend Double Dagger 5.7 4.2 90 29 5 10.0 100.30     LegendNANA
08:30 Legend Double Dagger 8.5 3.4 70 6 5 10.0 100.29     Mostly Cloudy
09:30 Legend Double Dagger 9.4 2.7 63 2 6 10.0 100.31     LegendNANA
10:30 Legend Double Dagger 9.7 1.1 55   0 10.0 100.32     LegendNANA
11:30 Legend Double Dagger 11.6 2.1 52 34 6 10.0 100.29     Mostly Cloudy
12:30 Legend Double Dagger 11.0 1.8 53 6 5 10.0 100.27     LegendNANA
13:30 Legend Double Dagger 11.7 2.0 51   0 10.0 100.24     LegendNANA
14:30 Legend Double Dagger 12.3 2.5 51 36 10 10.0 100.19     Mostly Cloudy
15:30 Legend Double Dagger 12.1 2.3 51 25 5 10.0 100.17     LegendNANA
16:30 Legend Double Dagger 12.2 2.4 51 12 12 10.0 100.14     LegendNANA
17:30 Legend Double Dagger 12.8 2.7 50   0 10.0 100.13     Mostly Cloudy
18:30 Legend Double Dagger 11.2 4.7 64 14 13 10.0 100.16     LegendNANA
19:30 Legend Double Dagger 9.7 4.1 68 12 12 10.0 100.19     LegendNANA
20:30 Legend Double Dagger 8.5 3.8 72 14 13 10.0 100.21     Mostly Cloudy
21:30 Legend Double Dagger 7.7 3.2 73 13 12 10.0 100.20     LegendNANA
22:30 Legend Double Dagger 6.6 3.2 79 15 7 10.0 100.18     LegendNANA
23:30 Legend Double Dagger 7.0 3.8 80 17 10 10.0 100.17     Mostly Cloudy

Notes on Data Quality.

Legend

  • E = Estimated
  • M = Missing
  • NA = Not Available
  • ‡ = Partner data that is not subject to review by the National Climate Archives
Date modified: